Newark, NJ

7:31 AM EDT on April 22, 2018 (GMT -0400)
Newark International

Weather History for KEWR - June, 2013

Change the Weather History Date:

Sunday, June 9, 2013

  Actual Average Record
Temperature  
Mean Temperature 73 °F 70 °F  
Max Temperature 84 °F 80 °F 102 °F (2011)
Min Temperature 61 °F 61 °F 47 °F (1957)
Degree Days  
Heating Degree Days 0 1  
Month to date heating degree days 4 11  
Since 1 June heating degree days 4 11  
Since 1 July heating degree days 4635 4866  
Cooling Degree Days 8 6  
Month to date cooling degree days 56 48  
Year to date cooling degree days 156 124  
Since 1 June cooling degree days 56 48  
Growing Degree Days 22 (Base 50)    
Moisture  
Dew Point 58 °F    
Average Humidity 65    
Maximum Humidity 90    
Minimum Humidity 40    
Precipitation  
Precipitation 0.00 in 0.14 in 2.11 in (1977)
Month to date precipitation 5.58 1.29  
Year to date precipitation 21.83 20.18  
Snow  
Snow 0.00 in 0.00 in T in (1952)
Month to date snowfall 0.0 0.0  
Since 1 July snowfall 29.5 28.5  
Snow Depth 0.00 in    
Sea Level Pressure  
Sea Level Pressure 30.13 in    
Wind  
Wind Speed 5 mph (West)    
Max Wind Speed 17 mph    
Max Gust Speed 22 mph    
Visibility 10 miles    
Events      
T = Trace of Precipitation, MM = Missing Value Source: NWS Daily Summary

Daily Weather History Graph

Daily Weather History Graph

Search for Another Location

Airport or City:

Astronomy

Jun. 09, 2013 Rise Set
Actual Time 5:25 AM EDT 8:26 PM EDT
Civil Twilight 4:52 AM EDT 9:00 PM EDT
Nautical Twilight 4:10 AM EDT 9:42 PM EDT
Astronomical Twilight 3:20 AM EDT 10:31 PM EDT
Moon 6:20 AM EDT (6/9) 9:11 PM EDT (6/9)
Length of Visible Light 16h 07m
Length of Day
15h 01m
New Moon, 1% of the Moon is Illuminated
Jun 9
New Moon
Jun 16
First Quarter
Jun 23
Full
Jun 30
Last Quarter
Jul 8
New

Hourly Weather History & Observations

Time (EDT) Temp. Heat Index Dew Point Humidity Pressure Visibility Wind Dir Wind Speed Gust Speed Precip Events Conditions
12:51 AM 68.0 °F - 61.0 °F 78% 30.06 in 10.0 mi West 6.9 mph - N/A   Partly Cloudy
1:51 AM 66.9 °F - 60.1 °F 79% 30.07 in 10.0 mi WNW 5.8 mph - N/A   Clear
2:51 AM 63.0 °F - 59.0 °F 87% 30.08 in 10.0 mi SW 3.5 mph - N/A   Clear
3:51 AM 63.0 °F - 59.0 °F 87% 30.08 in 10.0 mi SW 3.5 mph - N/A   Partly Cloudy
4:51 AM 63.0 °F - 59.0 °F 87% 30.11 in 10.0 mi WSW 3.5 mph - N/A   Clear
5:51 AM 63.0 °F - 59.0 °F 87% 30.13 in 10.0 mi WSW 4.6 mph - N/A   Partly Cloudy
6:51 AM 66.0 °F - 59.0 °F 78% 30.14 in 10.0 mi NW 4.6 mph - N/A   Scattered Clouds
7:51 AM 70.0 °F - 57.9 °F 65% 30.16 in 10.0 mi Calm Calm - N/A   Scattered Clouds
8:51 AM 73.0 °F - 57.0 °F 57% 30.17 in 10.0 mi Variable 3.5 mph - N/A   Mostly Cloudy
9:51 AM 75.0 °F - 55.0 °F 50% 30.17 in 10.0 mi WSW 3.5 mph - N/A   Mostly Cloudy
10:51 AM 77.0 °F - 55.0 °F 47% 30.16 in 10.0 mi NW 9.2 mph - N/A   Mostly Cloudy
11:51 AM 79.0 °F - 57.0 °F 47% 30.16 in 10.0 mi Variable 3.5 mph - N/A   Mostly Cloudy
12:51 PM 78.1 °F - 57.0 °F 48% 30.15 in 10.0 mi SSW 8.1 mph 16.1 mph N/A   Mostly Cloudy
1:51 PM 80.1 °F 80.4 °F 57.0 °F 45% 30.14 in 10.0 mi SW 11.5 mph 16.1 mph N/A   Mostly Cloudy
2:51 PM 82.9 °F 82.1 °F 55.9 °F 39% 30.13 in 10.0 mi NW 9.2 mph 16.1 mph N/A   Mostly Cloudy
3:51 PM 82.9 °F 82.0 °F 55.0 °F 38% 30.12 in 10.0 mi WSW 11.5 mph 19.6 mph N/A   Mostly Cloudy
4:51 PM 82.9 °F 82.0 °F 55.0 °F 38% 30.11 in 10.0 mi West 12.7 mph 17.3 mph N/A   Mostly Cloudy
5:51 PM 81.0 °F 80.7 °F 55.0 °F 41% 30.11 in 10.0 mi West 6.9 mph - N/A   Mostly Cloudy
6:51 PM 81.0 °F 80.7 °F 55.0 °F 41% 30.12 in 10.0 mi West 6.9 mph - N/A   Mostly Cloudy
7:51 PM 80.1 °F 80.1 °F 55.0 °F 42% 30.13 in 10.0 mi West 6.9 mph - N/A   Mostly Cloudy
8:51 PM 75.0 °F - 62.1 °F 64% 30.14 in 10.0 mi ESE 3.5 mph - N/A   Mostly Cloudy
9:51 PM 75.0 °F - 61.0 °F 62% 30.16 in 10.0 mi Calm Calm - N/A   Mostly Cloudy
10:51 PM 75.0 °F - 60.1 °F 60% 30.15 in 10.0 mi Calm Calm - N/A   Mostly Cloudy
11:51 PM 71.1 °F - 61.0 °F 70% 30.15 in 10.0 mi ENE 3.5 mph - N/A   Overcast